[[{"header":{"parameterUnit":"m.s-1","parameterCategory":1,"la1":30.2991,"la2":30.254,"lo1":-89.0895,"lo2":-89.0444,"dy":0.0017,"dx":0.0017,"nx":28,"ny":28,"refTime":"2025-11-29T03:00:00:Z","depth":0,"parameterNumber":2,"parameterNumberName":"U-component_of_WINDS"},"data":[0,0,0,0,0,0,0,0,0,0,0,0,0,0,0,0,0,0,0,0,0,0,0,0,0,0,0,0,0,0,0,0,0,0,0,0,0,0,0,0,0,0,0,0,0,0,0,0,0,0,0,0,0,0,0,0,0,0,-2.6023,-2.6026,0,-2.6263,-2.6266,-2.6269,-2.6365,-2.6364,-2.6364,-2.6363,-2.6611,-2.6618,-2.6625,0,0,0,0,0,0,0,0,0,0,0,0,0,-2.565,-2.5656,-2.6023,-2.6026,-2.6029,-2.6263,-2.6266,-2.627,-2.6365,-2.6364,-2.6364,-2.6363,-2.6609,-2.6618,-2.6626,0,0,0,0,0,0,0,0,0,0,0,0,0,-2.5843,-2.5658,-2.6022,-2.6105,-2.6115,-2.6262,-2.6266,-2.627,-2.6365,-2.6364,-2.6363,-2.6363,-2.6606,-2.6617,-2.6627,-2.6712,0,0,-2.666,-2.6665,0,0,0,0,0,0,0,0,-2.5832,-2.5857,-2.609,-2.6099,-2.6111,-2.6283,-2.6226,-2.6418,-2.6365,-2.627,-2.6363,-2.6362,-2.6503,-2.6522,-2.6569,-2.6723,-2.6734,-2.6661,-2.6668,-2.6672,-2.6675,0,0,0,0,0,0,0,-2.5819,-2.5847,-2.6118,-2.6093,-2.6106,-2.6131,-2.6157,-2.6263,-2.6389,-2.6278,-2.6286,-2.6313,-2.6509,-2.6559,-2.6576,-2.6737,-2.6661,-2.667,-2.6677,-2.6681,-2.6973,-2.6974,0,0,0,0,0,0,-2.5791,-2.5835,-2.6111,-2.6125,-2.5966,-2.6138,-2.6168,-2.6229,-2.6388,-2.6411,-2.6313,-2.6316,-2.6541,-2.6563,-2.6585,-2.6694,-2.6672,-2.6682,-2.6688,-2.6972,-2.6973,-2.6975,0,0,0,0,0,0,-2.5783,-2.5815,-2.6101,-2.5983,-2.6021,-2.6146,-2.6213,-2.6234,-2.6284,-2.6414,-2.6438,-2.6341,-2.6541,-2.657,-2.6679,-2.6704,-2.6687,-2.6697,-2.697,-2.6972,-2.6974,-2.6913,0,0,0,0,0,0,-2.5772,-2.5811,-2.5844,-2.5983,-2.6027,-2.619,-2.6215,-2.6239,-2.6302,-2.6308,-2.6447,-2.6469,-2.6543,-2.6663,-2.669,-2.6719,-2.6705,-2.6969,-2.6971,-2.6973,-2.6913,-2.6912,-2.6912,0,0,0,0,0,-2.5758,-2.5818,-2.5845,-2.5878,-2.607,-2.6191,-2.6217,-2.63,-2.6304,-2.6338,-2.6422,-2.6464,-2.6697,-2.6673,-2.6705,-2.6737,-2.6967,-2.697,-2.6973,-2.6913,-2.6912,-2.6912,0,0,0,0,0,0,-2.5679,-2.5837,-2.5869,-2.5975,-2.6069,-2.6207,-2.6253,-2.6296,-2.6392,-2.6394,-2.6494,-2.6524,-2.6625,-2.6692,-2.6663,-2.6827,-2.6836,-2.6845,-2.6779,-2.6779,-2.6779,-2.676,-2.6714,0,0,0,0,0,-2.5674,-2.5759,-2.5892,-2.5973,-2.6018,-2.6127,-2.6183,-2.6239,-2.6341,-2.6381,-2.6473,-2.657,-2.6666,-2.6727,-2.6821,-2.6923,-2.6955,-2.6961,-2.696,-2.6959,-2.6966,-2.7025,-2.703,-2.6984,-2.6984,-2.6984,0,0,-2.5665,-2.5761,-2.5809,-2.596,-2.6039,-2.6125,-2.616,-2.625,-2.6315,-2.6395,-2.6504,-2.6574,-2.669,-2.6796,-2.6847,-2.6855,-2.6986,-2.6963,-2.6961,-2.6969,-2.7029,-2.7033,-2.7037,-2.6986,-2.6986,-2.6986,0,0,-2.5691,-2.5772,-2.5848,-2.5927,-2.6046,-2.6118,-2.6136,-2.6269,-2.6318,-2.6429,-2.6491,-2.657,-2.6732,-2.6812,-2.6874,-2.6931,-2.6973,-2.6959,-2.6955,-2.7012,-2.7015,-2.7019,-2.7039,-2.7045,-2.6965,-2.6965,-2.6965,0,-2.5664,-2.5795,-2.5882,-2.5969,-2.6033,-2.6109,-2.6187,-2.626,-2.6404,-2.6447,-2.6454,-2.6659,-2.6742,-2.6868,-2.6882,-2.6929,-2.6953,-2.6943,-2.7007,-2.7012,-2.7017,-2.7037,-2.7044,-2.6963,-2.6963,-2.6963,-2.6963,0,-2.5757,-2.5847,-2.5894,-2.603,-2.6101,-2.6182,-2.6282,-2.6343,-2.6393,-2.6465,-2.6576,-2.6679,-2.6796,-2.683,-2.688,-2.6963,-2.6964,-2.6988,-2.6998,-2.7017,-2.7038,-2.7046,-2.6959,-2.696,-2.6961,-2.6961,0,0,-2.574,-2.5923,-2.5939,-2.6002,-2.6139,-2.6211,-2.6296,-2.641,-2.646,-2.6558,-2.6632,-2.6767,-2.679,-2.686,-2.692,-2.6969,-2.7008,-2.6988,-2.6992,-2.6987,-2.7106,-2.7087,-2.7094,-2.7037,-2.7039,-2.7041,-2.7096,0,-2.5785,-2.5939,-2.602,-2.6141,-2.6226,-2.6299,-2.6374,-2.6467,-2.6536,-2.6619,-2.6696,-2.679,-2.6813,-2.6856,-2.6908,-2.6992,-2.7033,-2.6989,-2.7108,-2.7111,-2.7076,-2.7106,-2.7086,-2.7133,-2.7105,-2.7106,-2.7107,0,-2.5857,-2.5952,-2.6081,-2.6208,-2.6247,-2.6312,-2.6423,-2.6501,-2.6608,-2.6655,-2.6733,-2.6792,-2.6886,-2.6889,-2.702,-2.6988,-2.7042,-2.7091,-2.7095,-2.7109,-2.711,-2.712,-2.7151,-2.7157,-2.7121,-2.712,-2.7119,0,-2.5832,-2.5992,-2.609,-2.6142,-2.6293,-2.6337,-2.6402,-2.6508,-2.6571,-2.6669,-2.6711,-2.6818,-2.6876,-2.6958,-2.7045,-2.7039,-2.7167,-2.7178,-2.7209,-2.7207,-2.7233,-2.723,-2.7272,-2.7267,-2.7267,-2.7267,-2.7267,0,-2.5873,-2.5949,-2.6081,-2.6141,-2.6228,-2.6321,-2.6405,-2.6476,-2.657,-2.6646,-2.6717,-2.6787,-2.6897,-2.6981,-2.7049,-2.7147,-2.7173,-2.7214,-2.7232,-2.7208,-2.7203,-2.7244,-2.7243,-2.7269,-2.7269,-2.7268,-2.7268,0,-2.5859,-2.595,-2.6062,-2.6195,-2.6231,-2.6289,-2.6404,-2.6466,-2.6539,-2.6634,-2.6662,-2.6777,-2.6879,-2.6974,-2.711,-2.7157,-2.7256,-2.7278,-2.7219,-2.7228,-2.7254,-2.725,-2.7324,-2.7339,-2.7324,-2.7324,-2.7324,0,-2.5879,-2.5939,-2.6079,-2.6134,-2.6198,-2.6286,-2.6351,-2.6444,-2.6509,-2.6635,-2.6682,-2.6789,-2.688,-2.7041,-2.7137,-2.7242,-2.7267,-2.7286,-2.7284,-2.7258,-2.7267,-2.7263,-2.7269,-2.7284,-2.7284,-2.7284,-2.7284,0,-2.5905,-2.5947,-2.6037,-2.6142,-2.6217,-2.6305,-2.6395,-2.6437,-2.6548,-2.6617,-2.6722,-2.6793,-2.6932,-2.7038,-2.7154,-2.7222,-2.7272,-2.7283,-2.7296,-2.7273,-2.7236,-2.7256,-2.7215,-2.7281,-2.7282,-2.7282,-2.7282,-2.7282,-2.5909,-2.5966,-2.6073,-2.617,-2.6248,-2.6331,-2.6395,-2.6475,-2.6564,-2.6684,-2.6735,-2.6841,-2.6948,-2.7108,-2.7176,-2.7262,-2.7272,-2.729,-2.7295,-2.7298,-2.7294,-2.7222,-2.7283,-2.7283,-2.7284,-2.7284,-2.7284,0,-2.5939,-2.6011,-2.61,-2.6223,-2.63,-2.6339,-2.6441,-2.6503,-2.6595,-2.669,-2.6778,-2.6899,-2.7002,-2.7106,-2.7215,-2.7263,-2.7289,-2.7289,-2.7286,-2.7301,-2.7278,-2.7256,-2.7266,-2.7266,-2.7266,-2.7266,-2.7266,-2.7266,-2.5963,-2.6061,-2.6115,-2.6253,-2.6325,-2.6429,-2.6484,-2.6561,-2.6637,-2.6768,-2.6854,-2.6921,-2.702,-2.7136,-2.7233,-2.7261,-2.7298,-2.7292,-2.7326,-2.7302,-2.7303,-2.7303,-2.7283,-2.7299,-2.7299,-2.7342,-2.7342,-2.7343]},{"header":{"parameterUnit":"m.s-1","parameterCategory":1,"la1":30.2991,"la2":30.254,"lo1":-89.0895,"lo2":-89.0444,"dy":0.0017,"dx":0.0017,"nx":28,"ny":28,"refTime":"2025-11-29T03:00:00:Z","depth":0,"parameterNumber":3,"parameterNumberName":"V-component_of_WINDS"},"data":[0,0,0,0,0,0,0,0,0,0,0,0,0,0,0,0,0,0,0,0,0,0,0,0,0,0,0,0,0,0,0,0,0,0,0,0,0,0,0,0,0,0,0,0,0,0,0,0,0,0,0,0,0,0,0,0,0,0,4.8283,4.8281,0,4.8147,4.8145,4.8144,4.8006,4.8004,4.8002,4.8001,4.7851,4.7849,4.7846,0,0,0,0,0,0,0,0,0,0,0,0,0,4.8415,4.8413,4.8283,4.8281,4.828,4.8147,4.8145,4.8143,4.8006,4.8004,4.8002,4.8,4.7852,4.7849,4.7846,0,0,0,0,0,0,0,0,0,0,0,0,0,4.8326,4.8413,4.8283,4.8196,4.8186,4.8148,4.8145,4.8143,4.8007,4.8004,4.8001,4.7999,4.7853,4.7849,4.7846,4.788,0,0,4.7835,4.7834,0,0,0,0,0,0,0,0,4.8331,4.8321,4.821,4.8202,4.8191,4.8091,4.8137,4.8054,4.8008,4.8075,4.8001,4.7998,4.7932,4.7922,4.7902,4.7872,4.7866,4.7835,4.7833,4.7832,4.7831,0,0,0,0,0,0,0,4.8338,4.8326,4.8229,4.8209,4.8197,4.816,4.8144,4.8121,4.802,4.8069,4.8058,4.8045,4.7926,4.7906,4.7898,4.7864,4.7835,4.7832,4.783,4.7829,4.7852,4.7855,0,0,0,0,0,0,4.8358,4.8332,4.8233,4.8225,4.8256,4.816,4.8142,4.8126,4.802,4.8002,4.8047,4.8039,4.7913,4.7902,4.7892,4.7922,4.7832,4.7828,4.7826,4.785,4.7853,4.7856,0,0,0,0,0,0,4.8362,4.8351,4.8239,4.8276,4.8259,4.8161,4.8143,4.8124,4.8104,4.8004,4.7984,4.8045,4.7911,4.7897,4.7884,4.7915,4.7827,4.7824,4.7846,4.7851,4.7854,4.7985,0,0,0,0,0,0,4.8366,4.8353,4.8367,4.8277,4.8257,4.8236,4.8145,4.8124,4.81,4.8087,4.7997,4.7979,4.7907,4.789,4.7881,4.7909,4.7821,4.7843,4.7848,4.7853,4.7978,4.7993,4.8007,0,0,0,0,0,4.8371,4.8407,4.8368,4.8357,4.8273,4.8238,4.8226,4.8146,4.8103,4.8114,4.805,4.7982,4.7915,4.789,4.7878,4.7906,4.7841,4.7847,4.7853,4.7971,4.799,4.8007,0,0,0,0,0,0,4.8499,4.8394,4.8349,4.8358,4.8309,4.8215,4.8227,4.8169,4.8128,4.8118,4.8017,4.7997,4.7996,4.7949,4.7924,4.7932,4.7868,4.7872,4.7962,4.7979,4.7994,4.8003,4.7818,0,0,0,0,0,4.8529,4.8513,4.842,4.8437,4.8415,4.8326,4.8308,4.8251,4.8194,4.8171,4.8106,4.805,4.8016,4.7995,4.7959,4.7972,4.7948,4.7985,4.8,4.8012,4.8015,4.8016,4.8031,4.7876,4.7876,4.7875,0,0,4.8589,4.853,4.8525,4.8461,4.8416,4.8398,4.8309,4.8294,4.8278,4.8167,4.8151,4.8102,4.8033,4.8034,4.803,4.7995,4.8054,4.802,4.803,4.8027,4.8024,4.8039,4.8052,4.788,4.7879,4.7878,0,0,4.8689,4.8644,4.8652,4.861,4.8544,4.8485,4.8488,4.8403,4.8367,4.8351,4.8267,4.8246,4.819,4.8144,4.8113,4.8198,4.8133,4.8189,4.8263,4.8265,4.8278,4.8288,4.8315,4.8326,4.8193,4.8194,4.8194,0,4.8771,4.8744,4.8662,4.8653,4.8626,4.8529,4.8535,4.8496,4.8421,4.8403,4.8367,4.8295,4.8241,4.8228,4.8249,4.8229,4.8225,4.8197,4.8283,4.8293,4.8301,4.8325,4.8336,4.8201,4.82,4.8199,4.8199,0,4.8846,4.8829,4.8843,4.8776,4.8751,4.8749,4.8665,4.8649,4.8595,4.8539,4.8522,4.8456,4.8403,4.8397,4.8342,4.8375,4.8355,4.8303,4.8235,4.8324,4.8345,4.8354,4.8211,4.8208,4.8206,4.8204,0,0,4.9019,4.891,4.8916,4.8884,4.8806,4.8789,4.8782,4.8735,4.8721,4.8673,4.8662,4.8619,4.857,4.8535,4.8474,4.8477,4.8545,4.8423,4.8419,4.8445,4.8574,4.8612,4.8625,4.8503,4.8505,4.8506,4.8579,0,4.9103,4.9088,4.9015,4.902,4.9001,4.891,4.8903,4.8853,4.8801,4.8775,4.8716,4.8686,4.8625,4.8603,4.8602,4.8538,4.8569,4.8531,4.8487,4.8487,4.8505,4.8637,4.8677,4.8749,4.8587,4.8589,4.859,0,4.9198,4.916,4.9164,4.9086,4.9075,4.9071,4.9021,4.8999,4.8939,4.8901,4.8864,4.8797,4.8781,4.8722,4.8696,4.8672,4.865,4.8616,4.8617,4.8606,4.8541,4.8627,4.877,4.878,4.8602,4.8601,4.8601,0,4.9321,4.927,4.9265,4.9241,4.9151,4.915,4.9111,4.9049,4.9025,4.8981,4.8963,4.8917,4.8891,4.8855,4.8776,4.874,4.8758,4.8692,4.8722,4.8724,4.8727,4.8727,4.8866,4.8719,4.8719,4.8719,4.8718,0,4.942,4.9425,4.9319,4.9316,4.9319,4.9235,4.9238,4.919,4.9136,4.912,4.9038,4.9023,4.8922,4.8894,4.8833,4.8819,4.8808,4.8774,4.8757,4.878,4.8784,4.8761,4.8753,4.8721,4.8721,4.872,4.872,0,4.9556,4.9486,4.9474,4.9391,4.937,4.9375,4.9302,4.9294,4.9239,4.9219,4.9209,4.912,4.9084,4.9003,4.8944,4.8902,4.8903,4.8874,4.8925,4.8913,4.8947,4.8944,4.9072,4.9084,4.8934,4.8936,4.8937,0,4.9622,4.9625,4.9543,4.9528,4.9494,4.947,4.9446,4.9364,4.9341,4.9274,4.9273,4.9232,4.9194,4.914,4.9067,4.9021,4.8989,4.9037,4.8981,4.9003,4.8985,4.8985,4.8983,4.9049,4.9051,4.9052,4.9054,0,4.9747,4.9712,4.9683,4.9642,4.9617,4.9579,4.9537,4.9528,4.9434,4.9413,4.9377,4.9349,4.929,4.9248,4.9192,4.9148,4.9084,4.9073,4.9077,4.9098,4.9126,4.9109,4.8955,4.9069,4.9068,4.9067,4.9066,4.9065,4.9847,4.9845,4.9787,4.9757,4.9717,4.968,4.9668,4.9613,4.9583,4.9532,4.9484,4.9453,4.939,4.9309,4.927,4.9241,4.9209,4.9215,4.9216,4.9218,4.9227,4.9135,4.923,4.923,4.9229,4.9229,4.9228,0,4.9965,4.9924,4.9898,4.9843,4.9818,4.9766,4.9717,4.9698,4.9673,4.9623,4.9589,4.9547,4.9506,4.9432,4.9384,4.9376,4.9345,4.9365,4.9363,4.9353,4.926,4.926,4.9391,4.9391,4.9391,4.9391,4.9391,4.9391,5.0023,5.0016,4.9975,4.9946,4.9904,4.9876,4.9852,4.9816,4.9775,4.9734,4.9701,4.9655,4.9594,4.9541,4.9501,4.948,4.9464,4.9494,4.9463,4.9376,4.936,4.9346,4.9345,4.9492,4.9492,4.9558,4.9559,4.956]}]]